Voltar ao catálogo

STARLINK-11641

AtivoComunicaçõesVLEO
NORAD 63268·PAYLOAD·🇺🇸 United States

Lançado Mar 15, 2025 de Cape Canaveral Space Force Station

Loading…

Próximas Passagens (próximas 24 horas)

TLE

AtualizadoSource: CelesTrak SupGP

Época: Sep 14, 2026, 21:08 UTC

1 63268C 25053D   26257.88104167  .00082209  00000+0  63860-3 0  2570
2 63268  43.0011  51.5075 0001821 281.5914 241.5063 15.70793887    18

Acompanhe STARLINK-11641 em tempo real com AllMySat

Download on the App Store